Lid_Strength_Index
4 4 4 4 4 4 4 4 4 3 3 3 3 3 3 2 2 4 7 4 4 -3 -1 1 2 2 3 5 4 5 10 12 11 11 10 7 9 6 5 6 5 5 5 4 2
4 4 4 4 4 4 4 4 4 4 4 4 3 3 3 2 5 6 2 -2 -2 -1 5 5 7 8 9 8 5 8 11 10 7 7 9 7 8 7 8 7 7 6 4 3 3
4 4 4 4 4 4 4 4 4 4 4 4 4 3 3 3 9 9 -2 -2 -2 -1 5 6 8 8 10 9 7 8 10 7 7 6 6 7 7 6 8 9 7 8 6 4 4
4 4 4 4 4 4 4 4 4 5 4 4 4 3 2 6 12 8 -2 -1 -1 0 6 8 9 10 11 11 9 9 7 6 6 6 7 8 6 8 7 7 5 5 4 4 4
5 5 4 4 4 4 4 4 4 5 5 5 4 4 6 10 9 6 -3 -1 0 2 6 9 10 10 10 10 9 10 9 6 6 6 6 6 7 8 7 5 4 4 4 5 4
5 5 4 4 4 4 4 4 4 5 5 4 4 4 9 12 7 6 1 1 1 5 7 9 9 8 9 9 10 9 7 7 6 7 6 8 8 7 7 5 5 5 5 4 4
5 5 5 4 5 5 4 5 5 5 4 4 4 4 7 9 6 5 6 4 3 6 8 8 8 9 9 10 9 6 9 7 7 7 8 6 10 9 6 5 6 6 5 5 4
5 5 5 5 5 4 5 5 5 4 2 3 3 5 11 5 5 3 6 7 5 7 8 8 8 10 10 9 7 9 9 12 9 7 7 8 13 8 6 6 7 6 6 5 4
5 5 5 5 5 5 5 5 4 2 3 2 5 8 9 3 5 4 5 7 7 8 9 7 8 11 10 10 11 11 13 13 11 7 8 9 12 8 6 7 7 7 6 5 5
5 5 5 5 5 5 6 5 5 4 2 2 3 8 7 8 6 4 5 6 8 8 9 11 12 13 13 11 15 13 13 13 12 9 9 10 11 8 7 7 7 7 6 6 5
5 5 5 5 5 6 7 11 10 10 7 8 8 7 7 6 5 5 5 7 9 11 13 13 14 15 12 11 9 11 11 12 10 8 10 11 11 9 8 7 7 7 6 6 5
5 5 5 5 6 6 9 12 10 11 14 9 8 8 6 6 7 6 5 8 10 13 12 13 15 12 11 10 10 10 11 11 10 8 10 11 11 9 8 8 7 7 7 6 5
5 5 5 6 6 9 12 12 9 10 14 10 9 8 8 7 8 7 6 8 10 12 13 15 13 11 10 11 11 13 13 12 11 10 10 11 13 11 9 7 7 6 6 5 5
6 5 6 7 11 10 11 10 10 10 14 11 10 7 7 6 8 4 5 7 10 11 13 14 11 11 11 11 10 13 11 11 10 11 15 10 17 13 10 9 8 7 6 6 5
6 6 7 7 11 12 11 10 10 11 18 9 9 5 7 9 9 7 5 7 10 11 12 13 13 12 12 11 9 11 9 10 10 12 13 14 15 13 10 12 9 8 6 6 5
6 6 7 9 10 10 9 10 11 14 17 10 7 9 9 9 8 7 7 7 7 10 12 11 10 11 11 10 9 9 12 13 13 13 17 14 14 14 13 11 9 7 6 6 5
7 7 8 8 12 11 11 11 15 17 11 11 11 10 10 10 9 9 9 11 11 13 14 13 12 11 10 12 11 12 14 17 17 17 18 13 15 12 10 8 8 7 7 6 5
8 8 9 8 10 9 12 15 18 13 12 10 10 10 11 11 11 9 11 12 12 11 14 15 16 12 11 11 12 13 14 16 19 18 16 13 16 13 7 6 6 6 6 5 5
8 11 12 10 8 11 15 19 17 13 9 9 10 11 12 10 10 10 12 12 11 12 12 15 14 11 10 10 10 14 15 13 17 18 17 15 13 10 9 9 7 7 6 6 5
10 12 13 8 8 13 17 18 16 11 10 10 12 11 13 13 12 12 12 10 11 10 11 12 15 11 10 10 11 12 12 14 17 19 19 16 15 13 11 9 9 8 7 6 5
13 16 12 8 11 14 19 18 15 11 10 12 11 12 12 13 13 13 12 10 9 9 11 12 14 13 11 11 11 13 14 15 15 17 18 18 16 11 10 8 8 7 6 6 5
13 18 11 10 14 17 17 15 12 11 10 11 11 11 12 12 13 13 12 10 8 9 12 12 13 13 13 10 9 10 12 13 15 18 17 17 15 9 8 8 7 7 6 5 5
14 14 11 11 16 15 13 12 11 11 10 10 11 11 11 12 13 12 11 8 8 9 11 12 15 15 14 13 11 12 12 14 15 16 17 16 14 9 9 8 7 7 6 6 5
12 16 13 12 14 15 16 14 12 8 8 8 9 10 11 12 11 12 11 8 7 8 6 8 16 14 14 13 12 12 11 12 13 16 16 15 13 10 8 8 7 7 6 6 5
10 13 12 14 14 14 15 13 11 10 9 8 10 9 10 13 11 11 10 9 7 6 9 12 14 15 11 11 10 10 11 12 13 13 14 12 12 9 8 8 7 6 6 6 6
10 11 10 12 11 13 13 14 11 10 10 10 10 9 10 11 10 11 10 9 10 9 11 13 14 14 12 11 10 11 10 10 11 11 12 12 12 9 8 7 7 7 6 6 6
9 8 9 10 11 13 13 12 10 9 9 8 9 11 11 9 8 8 8 8 8 9 11 14 15 16 14 13 13 14 11 11 11 10 10 12 9 9 8 8 7 7 7 6 6